QPF
0.03 0.01 0.01 0.00 0.00 0.01 0.01 0.03 0.04 0.06 0.08 0.07 0.06 0.05 0.04 0.03 0.03 0.02 0.03 0.03 0.04 0.04 0.03 0.03 0.02 0.02 0.02 0.03 0.03 0.02 0.02 0.02 0.03 0.03 0.04 0.06 0.07 0.09 0.11 0.10 0.10 0.09 0.07 0.06
0.01 0.01 0.01 0.01 0.01 0.01 0.01 0.02 0.03 0.04 0.08 0.10 0.10 0.06 0.06 0.05 0.03 0.03 0.03 0.04 0.05 0.03 0.03 0.03 0.03 0.04 0.03 0.03 0.03 0.02 0.02 0.03 0.04 0.04 0.05 0.06 0.07 0.08 0.08 0.07 0.06 0.07 0.08 0.08
0.02 0.01 0.02 0.04 0.03 0.03 0.03 0.03 0.03 0.04 0.05 0.06 0.06 0.04 0.03 0.04 0.03 0.04 0.04 0.05 0.05 0.04 0.03 0.02 0.03 0.03 0.03 0.03 0.03 0.03 0.02 0.02 0.03 0.05 0.05 0.06 0.06 0.06 0.06 0.06 0.06 0.09 0.11 0.10
0.04 0.05 0.09 0.06 0.02 0.02 0.03 0.05 0.04 0.04 0.06 0.03 0.03 0.03 0.02 0.02 0.03 0.02 0.03 0.04 0.05 0.04 0.03 0.03 0.02 0.01 0.01 0.01 0.02 0.02 0.02 0.02 0.03 0.05 0.05 0.06 0.06 0.05 0.05 0.05 0.06 0.08 0.09 0.09
0.08 0.09 0.08 0.05 0.02 0.03 0.05 0.10 0.09 0.07 0.05 0.04 0.03 0.04 0.03 0.02 0.02 0.02 0.03 0.03 0.04 0.05 0.04 0.04 0.02 0.02 0.01 0.01 0.02 0.02 0.02 0.03 0.04 0.04 0.04 0.05 0.06 0.05 0.05 0.06 0.06 0.07 0.08 0.08
0.07 0.11 0.10 0.07 0.02 0.01 0.05 0.10 0.05 0.03 0.03 0.05 0.05 0.08 0.05 0.03 0.02 0.01 0.02 0.03 0.04 0.05 0.04 0.04 0.03 0.02 0.02 0.02 0.02 0.03 0.04 0.04 0.03 0.03 0.04 0.04 0.05 0.05 0.05 0.06 0.06 0.06 0.07 0.07
0.08 0.10 0.06 0.03 0.01 0.02 0.12 0.12 0.04 0.05 0.06 0.06 0.06 0.07 0.06 0.03 0.02 0.02 0.03 0.04 0.04 0.05 0.04 0.05 0.04 0.02 0.03 0.03 0.03 0.03 0.04 0.05 0.04 0.04 0.05 0.04 0.05 0.06 0.06 0.06 0.06 0.06 0.05 0.06
0.08 0.10 0.10 0.03 0.02 0.06 0.10 0.06 0.04 0.05 0.05 0.06 0.05 0.04 0.03 0.03 0.04 0.04 0.04 0.04 0.04 0.04 0.04 0.05 0.04 0.02 0.04 0.03 0.03 0.03 0.03 0.04 0.05 0.05 0.03 0.03 0.06 0.07 0.06 0.05 0.06 0.05 0.05 0.05
0.06 0.08 0.05 0.03 0.05 0.06 0.05 0.05 0.05 0.05 0.05 0.05 0.04 0.03 0.03 0.03 0.04 0.03 0.03 0.04 0.05 0.05 0.07 0.06 0.05 0.04 0.04 0.04 0.03 0.03 0.03 0.04 0.05 0.05 0.05 0.07 0.09 0.08 0.05 0.05 0.05 0.04 0.04 0.05
0.03 0.02 0.02 0.04 0.05 0.03 0.03 0.03 0.03 0.03 0.03 0.03 0.04 0.03 0.04 0.04 0.04 0.04 0.04 0.04 0.05 0.07 0.07 0.07 0.06 0.05 0.05 0.04 0.04 0.04 0.04 0.05 0.04 0.05 0.07 0.10 0.09 0.06 0.04 0.03 0.03 0.05 0.05 0.05
0.04 0.02 0.02 0.02 0.03 0.02 0.02 0.02 0.02 0.03 0.02 0.02 0.05 0.05 0.04 0.04 0.05 0.04 0.04 0.04 0.05 0.06 0.05 0.04 0.04 0.03 0.04 0.04 0.04 0.05 0.05 0.05 0.04 0.05 0.08 0.11 0.08 0.04 0.03 0.03 0.03 0.05 0.06 0.03
0.05 0.02 0.02 0.02 0.02 0.02 0.01 0.02 0.02 0.03 0.02 0.03 0.04 0.05 0.05 0.07 0.05 0.03 0.03 0.04 0.04 0.04 0.03 0.02 0.02 0.01 0.02 0.03 0.04 0.04 0.05 0.06 0.06 0.07 0.07 0.05 0.03 0.02 0.02 0.02 0.02 0.04 0.05 0.03
0.03 0.01 0.02 0.01 0.01 0.01 0.01 0.02 0.03 0.02 0.02 0.03 0.03 0.04 0.05 0.04 0.03 0.03 0.03 0.03 0.02 0.02 0.02 0.01 0.01 0.01 0.02 0.03 0.04 0.05 0.06 0.07 0.06 0.04 0.03 0.02 0.01 0.02 0.02 0.02 0.01 0.02 0.02 0.02
0.01 0.01 0.01 0.01 0.01 0.01 0.02 0.02 0.03 0.03 0.02 0.02 0.02 0.02 0.03 0.03 0.04 0.04 0.03 0.02 0.02 0.02 0.02 0.01 0.01 0.01 0.02 0.03 0.05 0.06 0.05 0.05 0.03 0.02 0.01 0.01 0.01 0.01 0.01 0.01 0.01 0.01 0.01 0.02
0.00 0.00 0.00 0.01 0.01 0.01 0.03 0.04 0.03 0.03 0.01 0.01 0.02 0.02 0.02 0.03 0.04 0.03 0.02 0.01 0.02 0.04 0.04 0.02 0.02 0.02 0.02 0.03 0.04 0.04 0.03 0.02 0.02 0.02 0.01 0.00 0.01 0.01 0.01 0.01 0.00 0.01 0.01 0.02
0.00 0.00 0.00 0.01 0.01 0.01 0.01 0.03 0.04 0.02 0.01 0.01 0.02 0.02 0.02 0.03 0.04 0.02 0.02 0.02 0.03 0.04 0.03 0.02 0.01 0.02 0.02 0.02 0.02 0.02 0.02 0.01 0.01 0.01 0.01 0.01 0.01 0.01 0.01 0.00 0.00 0.01 0.02 0.01
0.01 0.01 0.01 0.01 0.01 0.01 0.01 0.02 0.03 0.02 0.02 0.02 0.02 0.02 0.03 0.03 0.03 0.02 0.02 0.01 0.02 0.02 0.01 0.01 0.01 0.01 0.01 0.01 0.01 0.01 0.01 0.01 0.01 0.01 0.01 0.01 0.01 0.01 0.01 0.00 0.01 0.02 0.01 0.01
0.01 0.01 0.01 0.01 0.01 0.01 0.01 0.01 0.01 0.02 0.03 0.02 0.02 0.03 0.04 0.06 0.06 0.03 0.01 0.01 0.01 0.01 0.01 0.00 0.01 0.01 0.01 0.01 0.01 0.00 0.01 0.01 0.01 0.01 0.01 0.01 0.01 0.01 0.01 0.01 0.01 0.01 0.00 0.01
0.01 0.01 0.01 0.01 0.02 0.02 0.02 0.02 0.02 0.02 0.02 0.02 0.02 0.02 0.02 0.05 0.06 0.02 0.01 0.01 0.01 0.01 0.01 0.01 0.00 0.01 0.01 0.01 0.00 0.00 0.00 0.00 0.00 0.00 0.01 0.01 0.01 0.01 0.01 0.01 0.00 0.00 0.00 0.00
0.01 0.02 0.01 0.01 0.01 0.02 0.03 0.03 0.02 0.02 0.01 0.01 0.01 0.01 0.02 0.03 0.02 0.01 0.00 0.01 0.01 0.01 0.01 0.00 0.00 0.01 0.01 0.01 0.00 0.00 0.00 0.00 0.00 0.00 0.00 0.00 0.00 0.00 0.00 0.00 0.00 0.00 0.00 0.00
0.02 0.01 0.01 0.01 0.01 0.02 0.03 0.02 0.02 0.01 0.01 0.00 0.01 0.01 0.02 0.02 0.01 0.01 0.01 0.01 0.01 0.00 0.00 0.00 0.01 0.01 0.01 0.01 0.00 0.00 0.00 0.00 0.00 0.00 0.00 0.00 0.00 0.00 0.00 0.00 0.00 0.00 0.00 0.00
0.01 0.01 0.01 0.01 0.01 0.01 0.03 0.03 0.03 0.01 0.01 0.01 0.01 0.01 0.01 0.01 0.01 0.01 0.01 0.01 0.01 0.00 0.00 0.00 0.01 0.01 0.01 0.00 0.00 0.00 0.00 0.00 0.00 0.00 0.00 0.00 0.00 0.00 0.00 0.00 0.00 0.00 0.00 0.00
0.01 0.01 0.01 0.01 0.01 0.01 0.01 0.01 0.01 0.01 0.01 0.01 0.01 0.00 0.00 0.00 0.00 0.01 0.01 0.01 0.01 0.00 0.00 0.00 0.00 0.00 0.00 0.00 0.00 0.00 0.00 0.00 0.00 0.00 0.00 0.00 0.00 0.00 0.00 0.00 0.00 0.00 0.00 0.01
0.01 0.01 0.01 0.01 0.01 0.02 0.03 0.01 0.01 0.01 0.01 0.01 0.00 0.00 0.00 0.01 0.01 0.02 0.02 0.01 0.00 0.00 0.00 0.00 0.00 0.00 0.00 0.00 0.00 0.01 0.01 0.00 0.00 0.00 0.00 0.00 0.00 0.00 0.00 0.00 0.00 0.00 0.00 0.01
0.01 0.01 0.03 0.03 0.03 0.04 0.03 0.02 0.01 0.01 0.02 0.02 0.01 0.01 0.01 0.01 0.02 0.02 0.01 0.00 0.00 0.00 0.00 0.00 0.00 0.00 0.00 0.00 0.01 0.00 0.00 0.00 0.00 0.00 0.00 0.00 0.00 0.00 0.00 0.00 0.00 0.00 0.00 0.00
0.01 0.02 0.04 0.02 0.02 0.04 0.03 0.02 0.01 0.02 0.02 0.02 0.02 0.02 0.02 0.02 0.01 0.00 0.00 0.00 0.00 0.00 0.00 0.00 0.00 0.00 0.00 0.01 0.01 0.00 0.00 0.00 0.00 0.00 0.00 0.00 0.00 0.00 0.00 0.00 0.00 0.00 0.00 0.00
0.01 0.01 0.02 0.02 0.03 0.04 0.02 0.01 0.02 0.02 0.02 0.02 0.02 0.02 0.02 0.01 0.00 0.00 0.00 0.00 0.00 0.00 0.00 0.00 0.00 0.00 0.01 0.01 0.00 0.00 0.00 0.00 0.00 0.00 0.00 0.00 0.00 0.00 0.00 0.00 0.00 0.00 0.00 0.00
MSLP
1011.09 1010.24 1009.39 1008.56 1007.81 1007.16 1006.61 1006.14 1005.70 1005.29 1004.87 1004.45 1004.04 1003.69 1003.43 1003.32 1003.40 1003.68 1004.15 1004.79 1005.55 1006.36 1007.17 1007.92 1008.56 1009.10 1009.53 1009.86 1010.11 1010.32 1010.50 1010.67 1010.83 1010.98 1011.11 1011.22 1011.28 1011.32 1011.34 1011.34 1011.33 1011.31 1011.30 1011.28
1011.28 1010.52 1009.70 1008.89 1008.11 1007.38 1006.72 1006.10 1005.52 1004.97 1004.44 1003.94 1003.49 1003.14 1002.92 1002.87 1003.02 1003.38 1003.92 1004.62 1005.41 1006.24 1007.05 1007.78 1008.42 1008.93 1009.33 1009.64 1009.88 1010.07 1010.25 1010.43 1010.60 1010.77 1010.93 1011.06 1011.16 1011.22 1011.24 1011.24 1011.21 1011.17 1011.11 1011.04
1011.44 1010.78 1010.07 1009.33 1008.57 1007.83 1007.10 1006.38 1005.68 1005.00 1004.35 1003.75 1003.24 1002.85 1002.63 1002.61 1002.80 1003.19 1003.78 1004.50 1005.32 1006.14 1006.94 1007.66 1008.26 1008.74 1009.12 1009.40 1009.62 1009.81 1009.99 1010.18 1010.38 1010.57 1010.76 1010.92 1011.04 1011.12 1011.15 1011.13 1011.08 1010.99 1010.88 1010.74
1011.62 1011.10 1010.52 1009.90 1009.22 1008.51 1007.76 1006.99 1006.20 1005.42 1004.65 1003.95 1003.36 1002.91 1002.65 1002.61 1002.79 1003.19 1003.78 1004.50 1005.31 1006.12 1006.89 1007.58 1008.14 1008.59 1008.94 1009.20 1009.41 1009.60 1009.78 1009.99 1010.21 1010.42 1010.64 1010.82 1010.95 1011.02 1011.03 1010.98 1010.88 1010.73 1010.55 1010.34
1011.87 1011.50 1011.06 1010.57 1010.00 1009.36 1008.64 1007.85 1007.01 1006.14 1005.29 1004.50 1003.81 1003.29 1002.97 1002.88 1003.02 1003.40 1003.95 1004.65 1005.42 1006.20 1006.93 1007.58 1008.11 1008.54 1008.86 1009.10 1009.30 1009.49 1009.69 1009.90 1010.12 1010.35 1010.56 1010.74 1010.85 1010.89 1010.86 1010.75 1010.58 1010.35 1010.08 1009.80
1012.22 1011.95 1011.64 1011.28 1010.82 1010.26 1009.59 1008.82 1007.96 1007.05 1006.13 1005.26 1004.50 1003.91 1003.52 1003.37 1003.46 1003.78 1004.29 1004.93 1005.65 1006.38 1007.07 1007.68 1008.18 1008.58 1008.88 1009.12 1009.32 1009.51 1009.70 1009.91 1010.12 1010.34 1010.52 1010.65 1010.70 1010.68 1010.58 1010.39 1010.13 1009.83 1009.48 1009.13
1012.63 1012.43 1012.20 1011.93 1011.56 1011.07 1010.46 1009.72 1008.87 1007.95 1007.01 1006.10 1005.29 1004.65 1004.20 1004.00 1004.04 1004.29 1004.74 1005.32 1005.99 1006.66 1007.30 1007.87 1008.34 1008.72 1009.02 1009.24 1009.44 1009.62 1009.80 1009.99 1010.17 1010.33 1010.45 1010.50 1010.48 1010.37 1010.17 1009.90 1009.56 1009.17 1008.77 1008.37
1013.07 1012.87 1012.67 1012.43 1012.10 1011.67 1011.10 1010.40 1009.58 1008.67 1007.74 1006.83 1006.02 1005.36 1004.90 1004.66 1004.66 1004.87 1005.26 1005.79 1006.39 1007.01 1007.60 1008.13 1008.57 1008.93 1009.22 1009.44 1009.62 1009.79 1009.94 1010.08 1010.20 1010.29 1010.32 1010.28 1010.15 1009.94 1009.64 1009.28 1008.87 1008.43 1008.00 1007.58
1013.47 1013.21 1012.96 1012.70 1012.38 1011.94 1011.40 1010.72 1009.94 1009.09 1008.20 1007.34 1006.57 1005.94 1005.50 1005.27 1005.26 1005.44 1005.80 1006.28 1006.83 1007.39 1007.94 1008.42 1008.84 1009.17 1009.44 1009.64 1009.80 1009.94 1010.04 1010.12 1010.16 1010.16 1010.09 1009.94 1009.71 1009.40 1009.02 1008.59 1008.13 1007.68 1007.24 1006.84
1013.78 1013.41 1013.06 1012.72 1012.33 1011.87 1011.32 1010.66 1009.92 1009.13 1008.32 1007.55 1006.86 1006.32 1005.95 1005.77 1005.78 1005.97 1006.31 1006.76 1007.26 1007.78 1008.27 1008.71 1009.09 1009.39 1009.63 1009.80 1009.93 1010.02 1010.06 1010.07 1010.03 1009.92 1009.75 1009.50 1009.18 1008.78 1008.35 1007.88 1007.42 1006.97 1006.57 1006.23
1013.97 1013.44 1012.95 1012.48 1012.00 1011.48 1010.89 1010.24 1009.54 1008.82 1008.12 1007.46 1006.91 1006.49 1006.23 1006.13 1006.21 1006.43 1006.78 1007.20 1007.67 1008.14 1008.58 1008.97 1009.29 1009.55 1009.74 1009.87 1009.95 1009.98 1009.96 1009.90 1009.76 1009.57 1009.31 1008.98 1008.59 1008.15 1007.69 1007.22 1006.79 1006.39 1006.06 1005.80
1013.99 1013.30 1012.67 1012.06 1011.45 1010.83 1010.20 1009.55 1008.89 1008.26 1007.67 1007.16 1006.76 1006.50 1006.38 1006.40 1006.56 1006.84 1007.20 1007.62 1008.05 1008.46 1008.84 1009.16 1009.42 1009.62 1009.75 1009.82 1009.84 1009.81 1009.73 1009.59 1009.39 1009.13 1008.81 1008.43 1008.01 1007.56 1007.12 1006.69 1006.31 1005.99 1005.75 1005.58
1013.86 1013.04 1012.26 1011.50 1010.78 1010.07 1009.39 1008.73 1008.12 1007.58 1007.12 1006.76 1006.53 1006.44 1006.47 1006.63 1006.88 1007.22 1007.60 1008.00 1008.39 1008.74 1009.05 1009.29 1009.48 1009.59 1009.65 1009.66 1009.62 1009.52 1009.38 1009.19 1008.94 1008.64 1008.30 1007.90 1007.49 1007.08 1006.68 1006.32 1006.02 1005.79 1005.64 1005.56
1013.60 1012.68 1011.78 1010.92 1010.09 1009.31 1008.58 1007.94 1007.38 1006.92 1006.59 1006.40 1006.34 1006.41 1006.59 1006.87 1007.22 1007.60 1008.00 1008.38 1008.71 1008.99 1009.21 1009.36 1009.45 1009.48 1009.46 1009.40 1009.29 1009.15 1008.97 1008.74 1008.48 1008.17 1007.82 1007.46 1007.09 1006.74 1006.41 1006.14 1005.93 1005.80 1005.74 1005.73
1013.22 1012.25 1011.29 1010.36 1009.46 1008.63 1007.89 1007.26 1006.76 1006.40 1006.20 1006.16 1006.26 1006.48 1006.80 1007.18 1007.60 1008.02 1008.41 1008.74 1009.01 1009.20 1009.32 1009.37 1009.36 1009.30 1009.21 1009.08 1008.93 1008.75 1008.54 1008.31 1008.05 1007.76 1007.46 1007.14 1006.84 1006.56 1006.33 1006.15 1006.04 1005.99 1006.00 1006.06
1012.76 1011.78 1010.81 1009.84 1008.92 1008.08 1007.36 1006.77 1006.34 1006.08 1006.00 1006.09 1006.32 1006.68 1007.10 1007.57 1008.03 1008.46 1008.82 1009.10 1009.28 1009.38 1009.40 1009.35 1009.24 1009.10 1008.94 1008.76 1008.57 1008.38 1008.17 1007.95 1007.72 1007.48 1007.23 1006.99 1006.77 1006.58 1006.44 1006.35 1006.32 1006.34 1006.40 1006.50
1012.22 1011.29 1010.33 1009.38 1008.48 1007.66 1006.98 1006.45 1006.10 1005.94 1005.98 1006.19 1006.54 1006.99 1007.50 1008.02 1008.49 1008.90 1009.22 1009.43 1009.53 1009.53 1009.45 1009.31 1009.12 1008.92 1008.70 1008.49 1008.29 1008.10 1007.91 1007.73 1007.54 1007.36 1007.18 1007.02 1006.88 1006.78 1006.72 1006.71 1006.74 1006.82 1006.92 1007.05
1011.63 1010.76 1009.85 1008.95 1008.09 1007.33 1006.71 1006.26 1006.00 1005.95 1006.09 1006.40 1006.84 1007.37 1007.92 1008.46 1008.94 1009.32 1009.58 1009.71 1009.73 1009.64 1009.48 1009.26 1009.02 1008.77 1008.54 1008.32 1008.13 1007.96 1007.81 1007.68 1007.55 1007.43 1007.32 1007.24 1007.17 1007.14 1007.15 1007.20 1007.28 1007.40 1007.53 1007.67
1011.01 1010.20 1009.36 1008.51 1007.72 1007.03 1006.49 1006.13 1005.97 1006.01 1006.25 1006.65 1007.16 1007.74 1008.32 1008.86 1009.31 1009.64 1009.84 1009.91 1009.86 1009.71 1009.49 1009.23 1008.96 1008.71 1008.48 1008.28 1008.12 1008.00 1007.90 1007.82 1007.75 1007.69 1007.64 1007.62 1007.62 1007.64 1007.70 1007.79 1007.91 1008.05 1008.20 1008.34
1010.37 1009.62 1008.83 1008.04 1007.32 1006.71 1006.25 1005.98 1005.92 1006.06 1006.37 1006.84 1007.41 1008.02 1008.61 1009.14 1009.56 1009.85 1010.00 1010.02 1009.92 1009.73 1009.49 1009.22 1008.96 1008.73 1008.54 1008.38 1008.28 1008.21 1008.16 1008.14 1008.12 1008.11 1008.12 1008.13 1008.17 1008.23 1008.32 1008.44 1008.58 1008.74 1008.89 1009.04
1009.75 1009.03 1008.28 1007.54 1006.88 1006.35 1005.97 1005.79 1005.81 1006.03 1006.42 1006.94 1007.54 1008.16 1008.76 1009.27 1009.66 1009.92 1010.04 1010.02 1009.90 1009.71 1009.48 1009.24 1009.02 1008.84 1008.71 1008.62 1008.58 1008.58 1008.58 1008.61 1008.63 1008.66 1008.69 1008.73 1008.78 1008.86 1008.97 1009.10 1009.25 1009.42 1009.59 1009.74
1009.16 1008.45 1007.72 1007.02 1006.42 1005.94 1005.64 1005.53 1005.62 1005.91 1006.35 1006.92 1007.54 1008.17 1008.76 1009.25 1009.62 1009.85 1009.95 1009.94 1009.82 1009.66 1009.46 1009.28 1009.13 1009.03 1008.97 1008.97 1009.00 1009.05 1009.11 1009.18 1009.23 1009.27 1009.31 1009.36 1009.41 1009.49 1009.60 1009.73 1009.89 1010.07 1010.25 1010.42
1008.63 1007.91 1007.18 1006.51 1005.94 1005.51 1005.27 1005.22 1005.38 1005.71 1006.20 1006.78 1007.42 1008.05 1008.62 1009.10 1009.45 1009.68 1009.78 1009.77 1009.69 1009.57 1009.44 1009.34 1009.28 1009.26 1009.30 1009.37 1009.48 1009.59 1009.70 1009.79 1009.86 1009.90 1009.94 1009.97 1010.02 1010.08 1010.18 1010.32 1010.48 1010.67 1010.87 1011.06
1008.16 1007.42 1006.69 1006.03 1005.48 1005.09 1004.89 1004.89 1005.09 1005.46 1005.97 1006.58 1007.22 1007.84 1008.39 1008.85 1009.20 1009.42 1009.53 1009.56 1009.52 1009.47 1009.42 1009.40 1009.43 1009.51 1009.64 1009.80 1009.97 1010.14 1010.28 1010.39 1010.47 1010.51 1010.54 1010.55 1010.58 1010.63 1010.72 1010.85 1011.02 1011.22 1011.44 1011.66
1007.75 1006.98 1006.24 1005.58 1005.06 1004.70 1004.53 1004.57 1004.80 1005.19 1005.72 1006.32 1006.95 1007.56 1008.10 1008.55 1008.88 1009.11 1009.24 1009.31 1009.32 1009.34 1009.37 1009.44 1009.57 1009.74 1009.95 1010.18 1010.42 1010.64 1010.82 1010.95 1011.04 1011.08 1011.09 1011.09 1011.10 1011.14 1011.22 1011.35 1011.53 1011.75 1011.99 1012.24
1007.35 1006.56 1005.82 1005.17 1004.66 1004.33 1004.20 1004.26 1004.51 1004.92 1005.45 1006.04 1006.66 1007.25 1007.78 1008.21 1008.54 1008.78 1008.93 1009.03 1009.10 1009.18 1009.29 1009.45 1009.66 1009.91 1010.20 1010.50 1010.80 1011.06 1011.28 1011.43 1011.54 1011.58 1011.60 1011.60 1011.60 1011.64 1011.72 1011.86 1012.05 1012.28 1012.55 1012.83
1006.93 1006.14 1005.40 1004.77 1004.28 1003.98 1003.87 1003.96 1004.22 1004.64 1005.16 1005.75 1006.35 1006.92 1007.43 1007.85 1008.18 1008.42 1008.60 1008.73 1008.86 1008.99 1009.17 1009.39 1009.67 1010.00 1010.36 1010.72 1011.07 1011.38 1011.64 1011.84 1011.97 1012.04 1012.07 1012.09 1012.11 1012.16 1012.26 1012.40 1012.61 1012.87 1013.16 1013.46
Thickness
5692 5702 5706 5707 5711 5716 5711 5706 5698 5697 5697 5700 5705 5707 5707 5707 5707 5705 5700 5696 5693 5689 5684 5680 5676 5673 5669 5666 5662 5659 5655 5652 5649 5647 5645 5643 5641 5640 5638 5637 5635 5633 5631 5629
5689 5701 5704 5701 5707 5709 5707 5707 5703 5700 5696 5703 5706 5707 5704 5700 5701 5699 5695 5692 5689 5685 5680 5676 5672 5668 5664 5661 5658 5654 5650 5647 5646 5644 5642 5640 5639 5637 5635 5633 5631 5628 5626 5625
5679 5694 5696 5685 5696 5698 5698 5702 5699 5690 5692 5699 5696 5699 5698 5698 5697 5695 5692 5689 5685 5681 5676 5672 5668 5664 5661 5658 5655 5651 5647 5645 5643 5641 5639 5638 5637 5635 5632 5629 5627 5624 5623 5621
5674 5679 5664 5685 5704 5701 5693 5694 5695 5691 5691 5694 5695 5699 5701 5699 5695 5692 5690 5686 5682 5678 5673 5670 5667 5663 5659 5656 5652 5649 5646 5643 5641 5639 5638 5636 5634 5631 5629 5627 5624 5621 5620 5619
5665 5663 5672 5686 5694 5692 5683 5679 5684 5683 5685 5690 5694 5696 5694 5695 5693 5690 5687 5684 5680 5676 5672 5668 5665 5661 5657 5653 5651 5647 5644 5642 5641 5639 5636 5634 5631 5629 5626 5624 5622 5620 5619 5617
5661 5653 5652 5672 5692 5698 5687 5671 5678 5678 5678 5682 5683 5676 5679 5688 5688 5687 5684 5681 5677 5674 5670 5666 5662 5660 5655 5651 5649 5646 5644 5642 5640 5638 5635 5632 5629 5627 5625 5623 5621 5619 5617 5615
5658 5652 5660 5680 5691 5691 5663 5656 5672 5673 5674 5676 5673 5673 5679 5684 5683 5682 5680 5677 5675 5671 5667 5663 5661 5657 5652 5650 5647 5647 5645 5643 5640 5636 5634 5632 5629 5626 5624 5622 5620 5618 5616 5614
5658 5649 5653 5679 5679 5665 5660 5670 5672 5672 5674 5673 5673 5677 5679 5679 5677 5676 5675 5673 5671 5668 5664 5662 5660 5655 5651 5648 5648 5647 5645 5641 5639 5636 5634 5632 5628 5626 5624 5621 5618 5616 5614 5612
5660 5658 5671 5678 5673 5670 5672 5670 5672 5672 5675 5674 5673 5674 5676 5675 5674 5672 5671 5670 5668 5664 5661 5659 5657 5654 5650 5648 5648 5645 5643 5640 5638 5635 5633 5631 5628 5625 5622 5620 5617 5615 5613 5609
5660 5668 5673 5676 5675 5673 5672 5671 5673 5674 5674 5674 5672 5672 5672 5671 5670 5668 5668 5666 5665 5661 5658 5655 5654 5653 5651 5649 5647 5644 5641 5638 5636 5634 5632 5630 5627 5625 5622 5619 5616 5613 5609 5605
5654 5661 5665 5670 5669 5670 5671 5672 5673 5673 5674 5673 5671 5670 5669 5668 5667 5666 5665 5664 5662 5659 5657 5654 5653 5652 5651 5649 5646 5642 5639 5637 5635 5634 5631 5629 5626 5623 5620 5617 5613 5608 5605 5601
5646 5654 5652 5657 5666 5668 5667 5668 5668 5669 5670 5671 5670 5667 5667 5665 5665 5664 5663 5662 5660 5658 5656 5654 5653 5651 5650 5649 5646 5642 5638 5636 5635 5634 5632 5630 5626 5622 5618 5614 5610 5606 5602 5596
5651 5656 5657 5661 5664 5666 5665 5666 5667 5667 5667 5667 5667 5667 5665 5663 5663 5662 5661 5660 5658 5657 5655 5654 5653 5651 5650 5648 5645 5641 5638 5636 5635 5634 5632 5630 5627 5623 5618 5612 5608 5603 5598 5593
5655 5654 5653 5657 5659 5662 5662 5664 5665 5666 5666 5665 5664 5665 5664 5662 5661 5660 5659 5659 5659 5657 5655 5654 5651 5650 5649 5647 5644 5642 5639 5637 5634 5633 5633 5630 5628 5624 5619 5614 5609 5604 5598 5591
5652 5652 5652 5656 5658 5659 5660 5661 5660 5661 5661 5661 5661 5661 5660 5659 5658 5658 5659 5659 5657 5655 5654 5653 5651 5649 5649 5647 5644 5641 5640 5638 5636 5635 5633 5631 5628 5624 5620 5615 5609 5604 5598 5591
5649 5652 5653 5652 5653 5655 5656 5657 5657 5658 5658 5658 5659 5659 5659 5658 5657 5658 5658 5657 5654 5652 5652 5652 5650 5649 5649 5647 5644 5642 5640 5637 5635 5634 5632 5630 5627 5623 5618 5613 5608 5603 5596 5589
5644 5645 5647 5648 5650 5653 5655 5657 5657 5658 5658 5658 5658 5658 5658 5657 5656 5656 5655 5655 5654 5653 5652 5651 5649 5650 5649 5647 5645 5644 5643 5640 5635 5633 5631 5628 5625 5621 5616 5611 5606 5601 5594 5586
5649 5649 5650 5650 5651 5652 5654 5657 5657 5657 5657 5659 5661 5659 5656 5654 5652 5653 5654 5654 5654 5653 5652 5651 5650 5649 5649 5648 5645 5645 5644 5642 5637 5634 5631 5627 5623 5619 5614 5609 5603 5598 5591 5585
5649 5650 5652 5652 5653 5653 5654 5655 5655 5656 5658 5660 5660 5658 5656 5654 5654 5653 5654 5653 5651 5650 5649 5650 5647 5648 5647 5647 5644 5644 5643 5642 5638 5634 5631 5624 5620 5617 5612 5606 5600 5595 5588 5581
5647 5649 5651 5652 5653 5653 5653 5654 5655 5656 5658 5659 5659 5657 5655 5655 5655 5655 5654 5652 5652 5652 5651 5649 5648 5647 5647 5646 5642 5644 5643 5641 5637 5633 5629 5624 5619 5614 5609 5603 5597 5591 5584 5577
5644 5646 5648 5650 5650 5652 5654 5655 5655 5656 5658 5658 5658 5656 5656 5656 5656 5655 5653 5651 5652 5653 5650 5647 5647 5646 5646 5644 5641 5642 5642 5640 5636 5632 5627 5622 5617 5612 5606 5600 5594 5587 5580 5572
5641 5642 5644 5646 5647 5649 5652 5654 5655 5656 5657 5658 5659 5659 5657 5656 5657 5656 5655 5654 5652 5650 5649 5648 5647 5644 5643 5641 5643 5642 5640 5638 5634 5630 5625 5620 5614 5608 5602 5596 5590 5583 5576 5568
5638 5640 5641 5643 5644 5647 5650 5653 5656 5657 5658 5658 5659 5658 5658 5658 5658 5656 5653 5654 5653 5648 5648 5648 5644 5642 5640 5641 5641 5641 5638 5636 5632 5628 5623 5618 5612 5606 5599 5593 5586 5579 5572 5564
5635 5636 5638 5640 5643 5644 5647 5651 5655 5658 5659 5660 5661 5661 5660 5659 5658 5660 5658 5653 5651 5648 5648 5644 5642 5641 5638 5641 5640 5638 5636 5634 5630 5626 5621 5616 5610 5603 5597 5590 5583 5576 5568 5560
5632 5633 5635 5637 5639 5642 5646 5650 5653 5656 5658 5660 5661 5662 5663 5662 5659 5659 5658 5655 5649 5648 5647 5643 5641 5639 5640 5641 5639 5637 5634 5632 5628 5624 5618 5613 5607 5601 5594 5587 5580 5573 5565 5557
5629 5630 5634 5636 5639 5643 5647 5650 5653 5656 5658 5659 5661 5661 5661 5662 5661 5660 5658 5655 5652 5648 5649 5647 5644 5640 5641 5641 5639 5636 5633 5630 5626 5622 5616 5610 5604 5598 5591 5584 5577 5570 5562 5553
5628 5631 5634 5637 5641 5645 5648 5651 5653 5656 5658 5659 5660 5661 5661 5661 5661 5660 5658 5657 5654 5651 5651 5651 5649 5646 5644 5641 5639 5636 5632 5629 5625 5620 5614 5608 5602 5595 5588 5581 5574 5566 5558 5550